Location: Gerlach
(40.6516°N, 119.3568°W)
Time: 05:59:59
(UTC-07:00)

Explorer 11/Cluster Stage 4 - Pass Details

Date: 08 February 2023
Orbit: 466 x 1241 km, 28.8° (Epoch: 02 April)

Event Time Altitude Azimuth Distance (km) Brightness Sun altitude
Exits shadow 04:16:19 32° 179° (S) 1,830 8.3 -31.4°
Maximum altitude 04:16:37 32° 174° (S) 1,833 8.3 -31.4°
Drops below altitude 10° 04:23:30 10° 115° (ESE) 3,167 10.3 -30.1°
Sets 04:26:48 0° 107° (ESE) 4,163 11.3 -29.5°
